Weather History for KLGA - July, 2014

Change the Weather History Date:

Monday, July 21, 2014

  Actual Average Record
Temperature  
Mean Temperature 76 °F 78 °F  
Max Temperature 84 °F 86 °F 100 °F (1991)
Min Temperature 67 °F 70 °F 62 °F (1950)
Degree Days  
Heating Degree Days 0 0  
Month to date heating degree days 0 0  
Since 1 June heating degree days 0 16  
Since 1 July heating degree days 0 0  
Cooling Degree Days 11 13  
Month to date cooling degree days 264 258  
Year to date cooling degree days 546 555  
Since 1 June cooling degree days 496 489  
Growing Degree Days 25 (Base 50)    
Moisture  
Dew Point 61 °F    
Average Humidity 62    
Maximum Humidity 81    
Minimum Humidity 43    
Precipitation  
Precipitation 0.00 in 0.15 in 2.06 in (2006)
Month to date precipitation 3.61 2.96  
Year to date precipitation 31.18 24.59  
Snow  
Snow 0.00 in 0.00 in - ()
Month to date snowfall 0.0 0.0  
Since 1 July snowfall 0.0 0.0  
Snow Depth 0.00 in    
Sea Level Pressure  
Sea Level Pressure 30.16 in    
Wind  
Wind Speed 6 mph (ESE)    
Max Wind Speed 15 mph    
Max Gust Speed 18 mph    
Visibility 10 miles    
Events      
T = Trace of Precipitation, MM = Missing Value Source: NWS Daily Summary

Daily Weather History Graph

Daily Weather History Graph

Search for Another Location

Airport or City:

Trip Planner

Search our weather history database for the weather conditions in past years. The results will help you decide how hot, cold, wet, or windy it might be!

Date:

Astronomy

Jul. 21, 2014 Rise Set
Actual Time 5:41 AM EDT 8:21 PM EDT
Civil Twilight 5:10 AM EDT 8:53 PM EDT
Nautical Twilight 4:30 AM EDT 9:32 PM EDT
Astronomical Twilight 3:45 AM EDT 10:17 PM EDT
Moon 1:31 AM EDT (7/21) 4:01 PM EDT (7/21)
Length of Visible Light 15h 43m
Length of Day
14h 39m
Waning Crescent, 24% of the Moon is Illuminated
Jul 21
Waning Crescent
Jul 26
New
Aug 3
First Quarter
Aug 10
Full
Aug 17
Last Quarter

Hourly Weather History & Observations

Time (EDT) Temp. Heat Index Dew Point Humidity Pressure Visibility Wind Dir Wind Speed Gust Speed Precip Events Conditions
12:51 AM 70.0 °F - 61.0 °F 73% 30.13 in 10.0 mi NE 3.5 mph - N/A   Partly Cloudy
1:51 AM 69.1 °F - 60.1 °F 73% 30.14 in 10.0 mi East 4.6 mph - N/A   Partly Cloudy
2:51 AM 69.1 °F - 61.0 °F 75% 30.13 in 10.0 mi East 5.8 mph - N/A   Partly Cloudy
3:51 AM 66.9 °F - 61.0 °F 81% 30.14 in 10.0 mi Calm Calm - N/A   Scattered Clouds
4:51 AM 68.0 °F - 61.0 °F 78% 30.16 in 10.0 mi Calm Calm - N/A   Scattered Clouds
5:51 AM 68.0 °F - 61.0 °F 78% 30.17 in 10.0 mi ENE 3.5 mph - N/A   Mostly Cloudy
6:51 AM 69.1 °F - 61.0 °F 75% 30.18 in 10.0 mi NE 5.8 mph - N/A   Mostly Cloudy
7:51 AM 70.0 °F - 61.0 °F 73% 30.19 in 10.0 mi ENE 4.6 mph - N/A   Mostly Cloudy
8:51 AM 72.0 °F - 62.1 °F 71% 30.19 in 10.0 mi NE 4.6 mph - N/A   Scattered Clouds
9:51 AM 73.9 °F - 62.1 °F 66% 30.19 in 10.0 mi Variable 3.5 mph - N/A   Partly Cloudy
10:51 AM 75.9 °F - 62.1 °F 62% 30.19 in 10.0 mi NE 3.5 mph - N/A   Partly Cloudy
11:51 AM 78.1 °F - 62.1 °F 58% 30.19 in 10.0 mi NE 4.6 mph - N/A   Scattered Clouds
12:51 PM 80.1 °F 80.9 °F 60.1 °F 50% 30.18 in 10.0 mi NE 4.6 mph - N/A   Scattered Clouds
1:51 PM 82.0 °F 82.1 °F 59.0 °F 45% 30.17 in 10.0 mi East 5.8 mph - N/A   Scattered Clouds
2:51 PM 82.0 °F 82.1 °F 59.0 °F 45% 30.15 in 10.0 mi Variable 4.6 mph - N/A   Partly Cloudy
3:51 PM 82.9 °F 82.6 °F 57.9 °F 42% 30.14 in 10.0 mi Variable 5.8 mph - N/A   Partly Cloudy
4:51 PM 82.9 °F 83.3 °F 61.0 °F 47% 30.13 in 10.0 mi South 9.2 mph - N/A   Scattered Clouds
5:51 PM 80.1 °F 81.1 °F 61.0 °F 52% 30.14 in 10.0 mi SSE 16.1 mph - N/A   Mostly Cloudy
6:51 PM 78.1 °F - 62.1 °F 58% 30.15 in 10.0 mi South 12.7 mph - N/A   Mostly Cloudy
7:51 PM 75.0 °F - 64.0 °F 69% 30.15 in 10.0 mi South 11.5 mph - N/A   Partly Cloudy
8:51 PM 73.0 °F - 64.0 °F 73% 30.16 in 10.0 mi South 10.4 mph - N/A   Partly Cloudy
9:51 PM 73.4 °F - 60.8 °F 65% 30.17 in 10.0 mi South 8.1 mph - N/A   Partly Cloudy
10:51 PM 73.9 °F - 62.1 °F 66% 30.17 in 10.0 mi South 6.9 mph - N/A   Partly Cloudy
11:51 PM 75.0 °F - 61.0 °F 62% 30.17 in 10.0 mi SW 9.2 mph - N/A   Partly Cloudy